User: anonymous   Login
Location: Unspecified
(0.0000°N, 0.0000°E)
Time: 07:35:01
(UTC+00:00)
Language:

PLEIADES 1B - Orbit

View from above orbital plane
View from above orbital plane
View from above satellite
View from above satellite

Ground track
Ground track

The orbit data is extracted from the following two-line orbital elements,

1 39019U 12068A   16178.74690515  .00000059  00000-0  22437-4 0  9995
2 39019  98.2021 252.9818 0001402  73.6916 286.4436 14.58556722189905
Epoch (UTC): 26 June 2016 17:55:32
Eccentricity: 0.0001402
inclination: 98.2021°
perigee height: 697 km
apogee height: 699 km
right ascension of ascending node: 252.9818°
argument of perigee: 73.6916°
revolutions per day: 14.58556722
mean anomaly at epoch: 286.4436°
orbit number at epoch: 18990

The dashed part of the orbit path shows where the satellite is in the earth's shadow,  

DLR